Temp
-10 -10 -10 -9 -9 -9 -8 -9 -10 -10 -10 -10 -10 -10 -10 -10 -10 -10 -10 -10 -10 -10 -10 -10 -10 -10 -10 -10 -10 -10 -10 -10 -10 -10 -10 -10 -10 -10 -10 -11 -10 -11 -11
-10 -10 -10 -9 -9 -9 -8 -9 -9 -10 -10 -10 -10 -11 -10 -10 -11 -11 -10 -10 -10 -10 -10 -10 -10 -10 -10 -10 -10 -10 -10 -10 -10 -10 -10 -10 -10 -10 -10 -10 -11 -11 -11
-10 -10 -9 -10 -9 -9 -9 -8 -9 -9 -10 -10 -11 -11 -11 -11 -11 -11 -11 -10 -10 -10 -10 -10 -10 -10 -10 -10 -10 -10 -10 -10 -10 -10 -10 -10 -10 -10 -10 -10 -10 -11 -11
-10 -10 -10 -10 -10 -9 -9 -9 -9 -10 -9 -10 -11 -12 -12 -11 -11 -11 -11 -10 -10 -10 -10 -10 -10 -10 -10 -10 -10 -10 -10 -10 -10 -10 -10 -10 -10 -10 -10 -10 -11 -11 -11
-10 -10 -10 -10 -10 -10 -9 -9 -9 -9 -9 -10 -10 -11 -12 -11 -11 -11 -11 -10 -10 -10 -10 -10 -10 -10 -10 -10 -10 -10 -10 -10 -10 -10 -10 -10 -10 -10 -10 -10 -11 -11 -11
-10 -9 -10 -10 -10 -10 -10 -10 -10 -9 -9 -9 -10 -10 -11 -11 -11 -11 -11 -11 -11 -10 -10 -10 -10 -10 -10 -10 -10 -10 -10 -10 -10 -10 -10 -10 -10 -10 -10 -11 -11 -11 -11
-10 -10 -10 -10 -10 -10 -10 -10 -10 -10 -10 -10 -10 -10 -10 -10 -10 -10 -11 -11 -11 -10 -10 -10 -10 -10 -10 -10 -10 -10 -10 -10 -10 -10 -10 -10 -10 -10 -11 -11 -11 -11 -11
-9 -10 -10 -10 -10 -10 -10 -10 -10 -10 -10 -10 -9 -9 -10 -10 -10 -10 -11 -11 -10 -10 -10 -10 -10 -10 -10 -10 -10 -10 -10 -10 -10 -10 -10 -10 -10 -10 -10 -11 -11 -11 -11
-10 -9 -10 -10 -10 -10 -10 -10 -10 -11 -10 -10 -10 -9 -10 -10 -10 -10 -10 -11 -10 -10 -10 -10 -10 -10 -10 -10 -10 -10 -10 -10 -10 -10 -10 -10 -10 -10 -10 -10 -10 -11 -11
-10 -10 -10 -10 -10 -10 -10 -10 -10 -11 -11 -10 -10 -10 -9 -10 -10 -10 -10 -10 -10 -10 -10 -10 -10 -10 -10 -10 -10 -10 -10 -10 -10 -10 -10 -10 -10 -11 -11 -11 -11 -11 -11
-10 -10 -10 -10 -10 -10 -10 -11 -11 -11 -11 -11 -11 -10 -10 -10 -10 -10 -10 -10 -10 -10 -10 -10 -10 -10 -10 -10 -10 -10 -10 -10 -10 -10 -10 -10 -11 -11 -11 -11 -11 -11 -11
-10 -10 -10 -10 -10 -10 -11 -11 -11 -11 -11 -11 -11 -11 -10 -10 -10 -10 -10 -10 -10 -10 -10 -10 -10 -10 -10 -10 -10 -10 -10 -10 -10 -10 -10 -10 -11 -11 -11 -11 -11 -11 -11
-11 -10 -10 -10 -10 -10 -10 -11 -11 -11 -11 -11 -11 -11 -11 -10 -10 -10 -10 -10 -10 -10 -10 -10 -10 -10 -10 -10 -10 -10 -10 -10 -10 -10 -10 -10 -11 -11 -11 -11 -11 -11 -11
-11 -11 -10 -10 -10 -10 -10 -10 -11 -11 -12 -12 -11 -11 -11 -11 -11 -10 -10 -10 -10 -11 -10 -10 -10 -10 -10 -10 -10 -10 -10 -10 -10 -10 -11 -11 -11 -11 -11 -11 -11 -11 -11
-11 -12 -12 -12 -11 -10 -10 -11 -11 -11 -11 -12 -12 -12 -12 -12 -11 -11 -11 -10 -10 -11 -11 -11 -10 -10 -10 -10 -10 -10 -10 -10 -10 -11 -11 -11 -11 -11 -11 -12 -11 -11 -11
-11 -12 -12 -12 -13 -11 -11 -11 -11 -11 -11 -11 -12 -12 -12 -12 -12 -12 -11 -11 -11 -11 -11 -11 -11 -10 -10 -10 -10 -10 -10 -10 -10 -11 -11 -11 -11 -11 -11 -12 -12 -11 -11
-11 -12 -12 -12 -12 -13 -12 -11 -11 -11 -11 -11 -12 -12 -12 -12 -12 -12 -12 -12 -11 -11 -11 -11 -11 -11 -11 -10 -10 -10 -10 -10 -10 -11 -11 -11 -11 -11 -12 -11 -12 -12 -12
-11 -11 -11 -12 -12 -12 -12 -12 -12 -11 -12 -11 -12 -12 -12 -12 -12 -12 -12 -12 -12 -11 -11 -11 -11 -12 -12 -11 -11 -11 -11 -11 -11 -11 -11 -11 -11 -11 -12 -12 -12 -12 -12
-11 -11 -11 -11 -12 -12 -12 -12 -13 -12 -12 -12 -12 -12 -12 -12 -12 -13 -13 -12 -12 -12 -12 -12 -12 -11 -12 -12 -12 -11 -11 -11 -11 -11 -11 -11 -11 -11 -11 -12 -12 -12 -12
-11 -11 -11 -11 -12 -12 -12 -12 -13 -13 -12 -12 -12 -12 -12 -12 -13 -12 -13 -13 -13 -13 -13 -12 -12 -12 -12 -12 -12 -12 -12 -12 -12 -11 -11 -12 -11 -11 -11 -12 -12 -12 -12
-13 -12 -11 -11 -11 -12 -12 -12 -12 -13 -13 -12 -13 -12 -12 -12 -13 -13 -13 -12 -12 -13 -13 -13 -13 -12 -12 -12 -12 -12 -12 -12 -12 -12 -12 -12 -12 -12 -12 -12 -12 -12 -12
-14 -14 -13 -12 -11 -11 -12 -13 -12 -13 -13 -13 -12 -12 -13 -12 -12 -13 -13 -13 -12 -12 -13 -13 -13 -13 -13 -12 -13 -12 -12 -13 -13 -13 -13 -12 -12 -12 -12 -12 -12 -12 -12
-14 -14 -15 -15 -13 -12 -12 -12 -13 -13 -13 -13 -13 -11 -12 -13 -13 -13 -13 -13 -13 -12 -12 -13 -13 -14 -14 -13 -13 -13 -12 -13 -13 -13 -13 -13 -13 -13 -13 -13 -13 -13 -13
-13 -14 -15 -15 -16 -14 -12 -12 -12 -13 -13 -14 -13 -13 -12 -12 -13 -13 -13 -13 -13 -13 -13 -13 -13 -13 -13 -14 -13 -13 -13 -13 -13 -13 -14 -14 -14 -14 -13 -13 -13 -13 -13
-16 -15 -16 -16 -16 -16 -16 -13 -13 -13 -14 -14 -14 -13 -11 -11 -12 -13 -13 -13 -13 -13 -13 -13 -13 -13 -13 -13 -13 -14 -13 -13 -13 -14 -14 -14 -14 -14 -14 -14 -14 -14 -13
-18 -19 -19 -18 -18 -17 -17 -16 -14 -14 -13 -14 -15 -14 -12 -12 -11 -12 -13 -13 -12 -12 -12 -12 -13 -12 -12 -12 -13 -13 -13 -13 -13 -14 -14 -14 -14 -14 -14 -14 -14 -14 -14
Height
5903 5903 5903 5901 5898 5895 5892 5891 5891 5890 5888 5888 5888 5889 5889 5889 5889 5890 5890 5890 5889 5888 5889 5890 5890 5891 5892 5893 5894 5894 5894 5894 5893 5892 5891 5891 5890 5888 5888 5887 5885 5885 5884
5903 5904 5904 5902 5899 5897 5894 5893 5893 5894 5890 5890 5890 5890 5890 5891 5890 5891 5891 5891 5890 5889 5890 5892 5893 5894 5895 5896 5897 5897 5897 5897 5896 5895 5894 5893 5892 5891 5890 5889 5888 5888 5887
5903 5903 5905 5903 5901 5899 5896 5895 5894 5894 5893 5891 5891 5891 5892 5892 5891 5891 5891 5892 5891 5892 5893 5894 5895 5897 5898 5898 5899 5900 5899 5899 5898 5897 5896 5895 5895 5894 5893 5892 5891 5890 5890
5903 5903 5904 5904 5903 5901 5899 5897 5896 5895 5895 5893 5892 5892 5893 5892 5892 5892 5893 5893 5894 5895 5896 5897 5898 5899 5900 5901 5902 5903 5902 5901 5901 5900 5899 5898 5897 5896 5896 5895 5894 5893 5893
5903 5903 5904 5904 5903 5902 5900 5899 5898 5897 5896 5896 5893 5893 5893 5893 5894 5894 5895 5896 5896 5898 5899 5900 5901 5902 5903 5904 5905 5905 5904 5904 5903 5902 5901 5901 5900 5899 5898 5897 5897 5897 5895
5902 5903 5903 5903 5904 5903 5901 5900 5900 5899 5898 5897 5896 5895 5894 5894 5895 5895 5896 5898 5899 5900 5902 5903 5904 5905 5906 5906 5907 5907 5906 5906 5906 5905 5904 5903 5903 5902 5901 5900 5899 5898 5897
5901 5902 5903 5904 5904 5904 5903 5902 5901 5901 5899 5898 5899 5897 5896 5896 5896 5897 5898 5899 5901 5903 5905 5906 5907 5908 5909 5909 5909 5909 5908 5908 5907 5907 5906 5905 5905 5904 5903 5902 5901 5900 5899
5900 5900 5902 5903 5903 5903 5903 5903 5902 5902 5901 5901 5900 5900 5899 5898 5898 5899 5900 5901 5903 5905 5907 5909 5910 5910 5911 5911 5910 5910 5910 5909 5909 5908 5907 5907 5906 5906 5905 5904 5903 5902 5901
5898 5899 5900 5901 5902 5903 5903 5903 5903 5902 5902 5901 5902 5901 5901 5900 5900 5901 5901 5903 5905 5907 5908 5910 5911 5912 5912 5912 5911 5911 5910 5910 5910 5909 5908 5908 5908 5907 5906 5905 5904 5904 5903
5893 5896 5897 5899 5900 5901 5902 5902 5902 5903 5902 5901 5902 5902 5902 5903 5902 5904 5903 5904 5906 5908 5909 5910 5911 5912 5912 5912 5912 5911 5911 5910 5910 5910 5909 5908 5908 5907 5907 5906 5905 5904 5903
5890 5893 5896 5897 5898 5899 5900 5900 5900 5901 5902 5902 5902 5902 5903 5904 5904 5904 5905 5906 5907 5908 5909 5910 5911 5912 5912 5912 5911 5911 5911 5911 5910 5909 5910 5909 5908 5907 5907 5906 5905 5904 5904
5887 5888 5891 5893 5894 5895 5897 5899 5899 5899 5901 5902 5902 5902 5902 5904 5905 5906 5905 5906 5908 5908 5909 5910 5910 5911 5911 5911 5910 5911 5911 5911 5910 5909 5910 5909 5908 5907 5907 5906 5905 5905 5904
5884 5885 5886 5888 5889 5891 5893 5895 5896 5897 5899 5900 5901 5902 5902 5902 5904 5905 5906 5906 5906 5908 5909 5910 5910 5910 5910 5911 5911 5910 5910 5909 5909 5909 5909 5908 5907 5906 5905 5905 5905 5904 5904
5876 5880 5881 5883 5886 5886 5888 5891 5893 5894 5895 5897 5899 5900 5901 5901 5902 5903 5905 5906 5906 5906 5907 5908 5909 5909 5910 5910 5910 5910 5909 5909 5908 5908 5908 5908 5906 5905 5905 5904 5904 5903 5903
5868 5872 5876 5877 5880 5883 5884 5886 5889 5890 5891 5893 5896 5897 5898 5899 5900 5901 5903 5904 5905 5905 5905 5905 5906 5907 5909 5909 5909 5909 5909 5908 5908 5908 5907 5906 5905 5904 5904 5903 5903 5903 5903
5863 5865 5868 5871 5873 5876 5879 5881 5883 5886 5887 5887 5890 5893 5895 5896 5897 5898 5899 5901 5903 5903 5904 5904 5904 5904 5906 5907 5908 5907 5907 5907 5907 5906 5906 5905 5904 5903 5903 5902 5902 5902 5902
5855 5858 5861 5863 5866 5869 5872 5876 5877 5880 5882 5883 5884 5887 5890 5892 5894 5895 5896 5897 5899 5901 5902 5902 5902 5902 5903 5904 5906 5906 5905 5905 5905 5905 5905 5904 5902 5902 5901 5901 5901 5901 5900
5844 5846 5851 5853 5856 5860 5863 5866 5870 5873 5874 5877 5878 5881 5883 5887 5889 5891 5892 5893 5894 5896 5898 5900 5901 5900 5900 5901 5902 5903 5903 5903 5903 5903 5903 5902 5901 5900 5899 5900 5899 5899 5899
5834 5835 5838 5842 5844 5849 5854 5857 5861 5866 5868 5870 5872 5874 5877 5879 5881 5884 5886 5887 5889 5891 5893 5895 5897 5898 5898 5898 5899 5899 5900 5900 5900 5900 5900 5900 5899 5899 5898 5898 5898 5897 5897
5821 5824 5827 5830 5831 5836 5842 5846 5851 5856 5861 5863 5866 5868 5868 5871 5873 5876 5879 5881 5883 5886 5888 5889 5891 5894 5895 5895 5895 5896 5896 5897 5897 5896 5897 5897 5897 5897 5897 5896 5896 5895 5895
5803 5810 5813 5816 5821 5823 5829 5835 5840 5845 5850 5852 5855 5859 5861 5864 5866 5870 5871 5874 5877 5880 5881 5883 5884 5887 5890 5891 5892 5892 5892 5893 5893 5893 5893 5894 5894 5894 5894 5894 5894 5893 5892
5785 5788 5794 5800 5805 5810 5813 5820 5827 5833 5836 5840 5842 5845 5851 5855 5858 5861 5865 5866 5868 5872 5874 5875 5877 5880 5882 5886 5888 5888 5889 5889 5889 5890 5890 5890 5891 5891 5891 5891 5891 5891 5890
5769 5770 5774 5778 5787 5792 5798 5804 5811 5818 5822 5827 5831 5834 5837 5844 5850 5852 5856 5859 5860 5863 5867 5867 5869 5871 5874 5877 5881 5883 5885 5886 5884 5886 5886 5887 5887 5888 5888 5888 5888 5887 5887
5746 5751 5755 5760 5766 5773 5780 5787 5793 5801 5806 5813 5819 5827 5828 5831 5836 5841 5844 5847 5851 5853 5857 5861 5861 5864 5864 5868 5871 5875 5878 5880 5881 5881 5882 5883 5883 5884 5884 5884 5884 5884 5883
5726 5728 5734 5739 5745 5752 5761 5768 5776 5782 5789 5797 5805 5811 5812 5805 5821 5827 5832 5836 5839 5843 5847 5851 5854 5856 5858 5858 5862 5865 5868 5872 5875 5876 5877 5878 5878 5878 5878 5879 5880 5880 5879
5707 5710 5713 5718 5724 5730 5739 5749 5756 5764 5771 5780 5787 5794 5799 5793 5792 5803 5813 5822 5829 5833 5837 5841 5845 5846 5850 5850 5853 5854 5859 5863 5867 5869 5870 5870 5870 5871 5872 5874 5875 5875 5875
Wind_Speed
21 22 24 22 20 21 22 19 14 15 17 17 16 15 13 11 10 8 7 7 7 5 9 14 15 16 19 20 19 18 16 15 15 14 16 16 17 16 15 16 18 16 16
19 21 20 21 22 19 21 19 15 11 17 17 16 16 14 12 10 8 8 7 6 8 14 17 15 19 19 20 19 16 15 14 14 14 15 16 16 17 16 15 17 16 15
18 20 18 19 22 19 20 19 15 13 11 15 15 15 13 10 9 9 9 9 12 15 18 18 18 19 19 18 16 15 15 14 12 12 15 15 14 14 15 15 15 15 15
15 18 18 16 19 21 18 19 17 14 13 14 16 14 11 10 9 9 10 12 15 17 18 17 19 18 17 16 14 13 13 13 12 12 14 14 14 13 13 13 14 15 14
12 14 17 15 15 18 17 19 18 16 15 12 15 13 11 9 9 10 11 13 16 16 16 17 15 16 14 13 11 11 12 12 11 11 12 13 13 13 13 13 13 13 13
12 11 13 14 13 14 17 17 18 18 16 15 12 13 11 10 10 10 11 14 15 13 14 14 13 14 11 10 9 10 10 12 10 10 11 11 12 12 12 13 12 11 11
11 10 11 12 11 10 13 16 16 17 18 15 10 10 10 10 12 10 11 16 13 12 13 11 12 11 10 8 8 9 10 10 9 9 9 9 10 11 12 11 13 13 11
10 11 11 9 10 9 9 11 15 15 16 15 10 8 9 10 12 10 12 15 12 11 10 9 10 9 6 6 7 7 8 9 9 8 9 7 8 10 10 10 10 12 12
12 13 13 10 7 8 7 8 10 13 12 15 10 8 6 10 9 9 11 14 13 11 10 8 9 6 3 3 5 5 6 8 8 8 7 7 6 7 7 7 7 8 10
17 15 15 13 10 8 7 6 7 9 11 11 11 5 6 6 9 7 9 13 13 11 10 8 7 5 2 1 2 4 4 5 6 6 6 6 6 5 4 5 6 6 6
17 15 16 17 14 12 10 7 5 5 8 8 8 6 4 5 7 8 7 8 11 11 10 8 7 6 4 4 3 1 2 3 3 4 4 5 4 3 4 5 5 5 5
24 21 18 19 19 17 14 12 8 6 4 6 6 5 3 5 7 8 9 8 7 8 9 9 9 8 7 6 4 2 1 1 1 1 2 4 5 4 4 5 6 5 4
25 29 28 24 22 21 20 17 14 10 6 4 4 4 2 4 7 9 9 10 9 8 8 9 9 8 7 7 6 5 5 3 2 2 2 4 5 5 4 4 5 4 4
29 27 31 30 26 24 23 22 20 16 12 9 6 4 4 2 6 10 11 11 12 11 11 11 11 11 10 8 8 7 6 5 4 4 3 5 6 5 4 3 4 4 4
32 29 27 33 30 28 26 26 25 22 18 16 11 9 7 6 4 7 11 13 12 12 12 12 12 12 11 9 8 8 7 7 7 5 5 5 6 5 4 3 4 4 5
36 34 32 27 30 34 30 30 29 28 25 22 18 15 12 9 8 7 8 12 14 13 12 12 13 13 11 9 8 9 9 9 8 7 7 7 8 5 5 5 4 5 5
44 41 37 35 34 32 29 34 34 33 32 28 25 21 18 15 12 11 9 9 11 14 14 13 13 14 14 12 11 10 9 9 9 10 10 10 8 7 5 6 6 6 4
44 45 44 45 41 38 37 32 37 39 38 35 32 28 24 21 18 14 13 12 10 10 13 14 14 14 15 14 12 11 10 10 11 12 13 12 10 7 6 6 6 4 5
49 48 47 48 49 46 43 41 36 41 43 41 39 35 31 28 25 22 19 18 14 11 11 11 14 17 17 16 15 14 13 13 13 14 14 12 10 8 7 7 6 6 7
56 55 54 51 52 50 48 46 44 42 43 46 45 41 38 35 33 29 26 23 19 16 13 11 13 13 18 18 18 18 16 16 15 14 14 12 10 9 9 9 7 7 8
67 63 61 60 57 56 53 52 51 48 45 47 49 48 45 42 39 35 32 29 25 21 19 17 15 12 13 16 18 20 19 16 16 16 13 10 9 10 10 11 10 10 10
76 74 72 69 67 63 61 55 55 53 49 49 50 57 52 48 44 41 38 35 33 29 26 22 20 17 16 15 15 21 19 17 16 16 13 10 11 11 10 10 12 11 11
80 82 79 77 76 73 69 65 58 58 56 52 51 50 49 52 50 48 44 41 38 36 32 31 27 23 21 20 16 18 19 17 20 14 14 11 11 11 10 11 12 13 12
76 82 85 84 80 79 77 73 67 62 63 59 55 53 59 56 58 56 52 48 45 43 39 36 35 30 29 24 23 18 18 20 20 18 16 16 14 13 13 13 13 14 14
58 69 76 85 85 84 81 80 75 70 67 63 59 59 58 57 63 63 60 56 52 49 44 42 40 37 33 33 28 26 23 21 22 23 21 21 19 19 18 15 15 15 16
45 52 59 65 77 83 85 84 83 78 73 68 65 62 65 71 62 67 66 62 56 54 50 46 45 44 40 39 36 33 28 26 23 25 27 27 29 26 24 20 17 19 19
Wind_Direction
6 13 13 14 26 32 36 58 84 94 89 78 66 63 56 54 52 44 31 18 2 23 95 110 111 110 111 109 102 96 89 85 82 82 78 72 73 80 82 82 84 82 81
3 7 13 11 20 31 38 50 69 82 87 74 65 59 54 51 49 37 21 9 52 89 118 121 118 119 115 108 102 93 84 79 79 78 80 73 70 74 79 80 85 83 82
356 359 9 10 16 23 37 39 56 57 64 76 67 59 49 44 38 28 36 75 86 111 120 124 122 121 113 106 98 88 80 73 78 74 81 77 71 78 83 85 83 81 79
344 349 358 9 15 14 35 36 41 50 42 68 65 58 54 49 42 54 72 85 95 113 121 121 125 122 115 109 99 85 79 77 80 73 76 74 69 71 79 83 83 78 76
326 334 343 0 9 12 28 34 35 40 46 49 71 64 64 67 68 82 78 94 102 112 116 123 124 124 116 109 95 79 70 72 79 75 78 75 71 68 79 83 76 74 78
305 319 329 342 359 11 22 34 31 37 43 51 61 69 70 83 88 94 90 107 108 112 118 125 127 128 122 112 84 67 66 74 74 73 73 74 68 64 75 75 64 64 66
284 297 312 326 342 359 16 28 31 30 38 49 55 65 73 90 106 97 98 116 118 115 126 133 136 133 133 103 74 57 59 69 78 76 71 71 61 56 56 63 56 56 66
268 280 287 305 325 336 359 20 25 29 34 42 65 60 77 99 110 101 96 121 126 124 135 142 145 142 124 84 56 51 65 67 75 75 71 64 63 52 47 43 45 53 59
259 264 271 279 292 310 323 350 20 24 27 42 48 84 82 112 111 113 104 128 137 138 145 150 154 151 119 59 44 44 70 73 70 66 64 57 47 45 39 35 35 41 53
259 244 247 253 256 266 284 310 342 21 20 30 47 70 106 129 133 125 123 128 144 152 157 160 159 166 172 338 11 41 60 70 72 48 39 34 35 20 9 10 13 20 28
247 245 246 249 247 248 256 260 295 338 16 14 33 58 123 145 165 152 144 141 149 157 165 174 179 194 230 273 307 19 90 76 80 44 25 35 28 19 342 330 351 359 1
258 251 246 246 247 239 235 247 252 280 330 3 359 38 104 172 179 189 181 177 171 178 185 199 210 225 249 266 273 254 229 195 149 61 22 23 19 9 352 328 324 332 4
258 260 260 248 242 244 239 229 236 239 253 296 325 330 43 191 198 196 208 207 207 211 221 223 230 235 245 260 257 238 230 236 264 301 344 1 8 1 341 323 314 319 333
263 260 261 256 243 237 240 237 229 233 234 240 255 270 287 255 215 213 209 218 225 226 232 237 240 244 244 244 249 248 250 255 259 267 306 356 351 343 334 330 323 328 309
262 259 258 262 250 241 237 235 236 229 226 230 236 250 253 262 243 223 225 223 227 237 240 241 245 241 230 234 238 250 252 261 257 268 300 335 332 330 332 324 318 318 314
254 258 259 261 251 251 236 237 235 235 230 226 226 236 248 245 248 245 229 232 234 229 239 246 247 248 244 233 235 244 253 254 264 279 299 314 319 322 329 314 294 300 309
256 253 252 252 244 253 254 242 234 234 235 233 227 224 233 242 242 248 246 230 233 240 234 234 246 253 252 249 248 245 251 261 268 282 293 300 306 301 317 310 305 306 292
254 257 251 250 248 246 246 247 239 234 232 232 231 227 226 230 239 239 247 248 230 232 246 242 238 247 256 253 248 250 250 258 273 282 289 294 296 291 299 300 306 297 290
255 254 254 254 250 246 244 243 243 240 236 233 232 229 226 226 226 233 235 242 242 234 233 247 247 244 246 256 256 253 255 258 265 274 282 286 292 273 278 282 291 274 268
253 254 253 251 254 251 243 241 239 242 240 235 236 235 230 227 228 225 231 234 236 239 242 238 247 253 250 251 257 255 254 258 261 267 276 281 277 263 275 275 270 262 264
255 253 251 251 248 251 247 239 238 240 242 245 230 234 232 231 229 230 228 231 233 234 236 242 245 247 253 248 252 258 255 256 261 266 267 269 263 255 261 267 269 264 266
252 249 249 247 247 246 247 242 237 236 236 243 246 235 227 232 231 233 231 230 233 231 234 234 241 244 245 250 250 252 256 255 258 256 254 251 254 252 253 256 265 268 268
247 249 247 245 244 243 242 243 236 235 234 233 240 249 233 227 234 233 234 234 233 234 233 235 233 235 243 244 245 250 254 250 253 252 253 247 242 242 247 248 254 261 265
248 243 244 246 243 240 240 239 237 231 233 231 232 236 247 234 230 234 232 233 235 237 234 234 237 235 235 241 240 248 251 250 248 249 247 245 242 247 238 238 244 254 263
251 247 242 240 242 240 237 236 236 234 229 230 230 230 230 232 237 230 233 233 233 235 237 236 238 241 240 239 239 240 243 245 249 248 249 252 248 247 247 245 248 253 255
261 251 249 244 241 239 237 235 235 235 231 226 227 230 229 237 229 230 228 233 236 239 237 239 240 240 239 240 239 237 237 242 243 247 246 245 251 250 251 245 252 258 262